Location: Ceaulmont
(46.5232°N, 1.5757°E)
Time: 07:30:18
(UTC+00:00)

Daily predictions for brighter satellites

Satellite Brightness Start Highest point End
(mag) Time Altitude Azimuth Time Altitude Azimuth Time Altitude Azimuth
ATLAS 3B R/B 3.1 17:00:54 10° NW 17:07:52 76° SW 17:15:06 10° SSE
Cosmos 1400 Rocket 3.7 17:04:53 10° NNW 17:08:56 56° W 17:12:54 10° S
Meteor 2-5 Rocket 3.8 17:07:51 10° S 17:13:19 61° E 17:18:47 10° NNE
CZ-4C R/B 2.9 17:08:35 10° WSW 17:13:30 47° NW 17:19:27 10° NNE
CZ-3B R/B 2.7 17:14:08 10° NNW 17:15:59 21° NNE 17:19:08 10° ENE
SJ 16-02 3.2 17:14:25 10° ESE 17:16:20 13° E 17:18:14 10° ENE
CORIOLIS 4.2 17:14:48 10° SSE 17:20:12 81° ENE 17:25:37 10° NNW
Cosmos 2263 Rocket 2.3 17:15:18 10° SSW 17:20:59 88° ESE 17:26:42 10° NNE
Cosmos 783 Rocket 4.5 17:16:17 10° NNW 17:21:33 81° ENE 17:26:48 10° SSE
Envisat 4.4 17:18:46 10° S 17:23:35 44° W 17:28:27 10° NNW
Cosmos 1354 Rocket 4.1 17:20:17 10° SSW 17:25:37 88° WNW 17:31:00 10° NNE
NOAA 11 4.2 17:20:10 10° SSE 17:25:40 81° ENE 17:31:12 10° NNW
Cosmos 1455 3.7 17:23:30 10° NNE 17:25:53 16° ENE 17:28:15 10° ESE
Cosmos 2058 Rocket 3.8 17:23:57 10° N 17:28:00 32° ENE 17:32:02 10° SE
Cosmos 1300 2.6 17:26:33 10° N 17:30:23 81° E 17:34:11 10° S
X-37B 2.9 17:29:07 10° S 17:30:58 15° SSE 17:32:50 10° ESE
GENESIS II 4.5 17:31:09 10° SW 17:35:09 71° NW 17:39:10 10° NNE
Landsat 5 4.1 17:31:24 10° N 17:35:17 54° WNW 17:39:03 10° SSW
ARGOS 4.3 17:34:04 10° ESE 17:38:02 22° ENE 17:42:01 10° NNE
CREW DRAGON DEMO-1 DEB 3.7 17:37:32 10° WNW 17:40:12 31° N 17:41:52 17° ENE
Lacrosse 5 2.3 17:35:33 10° NW 17:40:25 45° NNE 17:45:00 11° E
Okean 1-7 Rocket 4.4 17:36:36 10° SSE 17:40:37 32° E 17:44:41 10° NNE
Cosmos 1943 3.8 17:37:17 10° NNW 17:42:53 62° WSW 17:48:25 10° S
ISS -2.1 17:40:36 10° S 17:43:15 22° SE 17:45:00 15° E
Cosmos 1726 Rocket 3.5 17:39:17 10° N 17:43:39 70° E 17:48:01 10° SSE
Cosmos 1939 Rocket 2.8 17:40:41 10° SSE 17:44:47 73° ENE 17:48:53 10° N
ERS-2 3.2 17:42:02 12° NE 17:44:48 25° E 17:47:51 10° SSE
EXPRESS MD2 4.4 17:36:44 10° WNW 17:46:08 87° NNE 17:50:21 11° ESE
CZ-2C R/B 4.2 17:45:49 14° E 17:46:15 14° E 17:49:09 10° ESE
Meteor 1-24 Rocket 3.6 17:42:04 10° S 17:47:26 90° WNW 17:52:46 10° N
COSMOS 2455 3.0 17:42:28 10° SSW 17:48:19 55° ESE 17:54:03 11° NE
Cosmos 1833 Rocket 4.3 17:50:46 10° N 17:53:48 14° NE 17:54:41 14° NE
Cosmos 2082 Rocket 4.2 17:54:26 10° NNE 17:55:17 10° NNE 17:55:56 10° NE
IRS-1C Rocket 4.1 17:50:32 10° SSE 17:55:40 59° ENE 18:00:51 10° N
Cosmos 1315 Rocket 3.9 17:52:19 10° NNW 17:56:10 49° W 18:00:02 10° S
CZ-4 R/B 1.8 17:53:18 10° SE 17:57:09 40° ENE 18:00:56 10° N
Feng Yun 1-1 Rocket 4.1 17:52:56 10° SSE 17:58:21 82° ENE 18:03:55 10° NNW
COSMO-SKYMED 1 2.5 17:58:02 10° NNE 18:02:23 71° ESE 18:06:43 10° S
Cosmos 2279 Rocket 4.2 17:57:14 10° NNW 18:03:30 76° W 18:09:43 10° S
USA 267 4.5 18:04:12 17° E 18:06:46 21° SE 18:11:34 10° S
CZ-4 R/B 4.3 18:06:26 10° SSE 18:10:33 82° ENE 18:14:43 10° NNW
CZ-4B R/B 1.6 18:09:09 10° N 18:12:32 69° WNW 18:15:50 10° SSW
Okean-O 2.7 18:08:56 10° SSE 18:13:15 55° ENE 18:17:36 10° N
CZ-2C R/B 3.1 18:09:27 10° SSE 18:14:44 87° ENE 18:20:21 10° NNW
Cosmos 1844 Rocket 2.8 18:09:54 10° S 18:15:24 54° ESE 18:19:24 19° NE
Okean O Rocket 3.6 18:12:21 10° SSW 18:16:19 31° W 18:20:17 10° NNW
Cosmos 923 Rocket 4.2 18:11:22 10° NNW 18:16:34 48° ENE 18:21:41 10° SE
OE (NEXTSAT) 4.4 18:13:19 10° WSW 18:16:44 65° SSE 18:17:46 40° E
H-2A R/B 2.0 18:12:23 10° SSE 18:17:13 55° ENE 18:22:13 10° N
Meteor 1-21 Rocket 4.3 18:13:01 10° SSE 18:18:19 49° E 18:23:39 10° NNE
ATLAS 2AS CENTAUR R/B 4.2 18:11:39 10° W 18:18:47 35° NNW 18:25:30 11° NNE
Aureole 2 Rocket 1.9 18:15:50 10° SSW 18:18:48 69° ESE 18:19:28 48° NE
Cosmos 1689 Rocket 2.8 18:20:00 34° SE 18:20:00 34° SE 18:22:01 10° S
Cosmos 158 Rocket 4.0 18:16:43 10° NNW 18:22:00 58° ENE 18:27:18 10° SE
Cosmos 1680 Rocket 3.8 18:18:55 10° N 18:23:55 43° ENE 18:26:36 24° ESE
Cosmos 1898 Rocket 4.4 18:19:35 10° SSE 18:23:42 27° ESE 18:23:42 27° ESE
CZ-2D R/B 4.2 18:27:06 10° S 18:30:51 49° W 18:34:36 10° NNW
Cosmos 1602 Rocket 3.9 18:27:47 10° SSE 18:31:35 40° ESE 18:31:35 40° ESE
Cosmos 1818 3.5 18:26:50 10° SSW 18:32:13 70° ESE 18:34:52 31° NE
SAR-Lupe-4 3.4 18:31:27 39° NNE 18:32:41 76° ESE 18:36:15 10° S
TELKOM 3 4.1 18:30:25 10° WSW 18:32:11 44° SW 18:32:11 44° SW
Meteor 2-10 Rocket 4.1 18:28:00 10° NNW 18:33:29 62° W 18:38:41 10° S
H-2A R/B 4.4 18:31:00 10° N 18:34:33 24° WNW 18:38:03 10° WSW
YAOGAN 1 2.4 18:30:52 10° SSE 18:35:11 87° ENE 18:39:33 10° NNW
Cosmos 489 Rocket 4.4 18:29:19 10° NNW 18:35:44 85° ENE 18:42:04 10° SSE
CSL-04 Rocket 3.6 18:33:47 10° SSE 18:39:04 61° ENE 18:44:29 10° N
Helios 1A Rocket 2.8 18:35:58 10° SSE 18:40:06 80° ENE 18:44:16 10° NNW
USA 234 3.8 18:40:19 32° ENE 18:42:44 43° NNE 18:48:50 10° NW
SAR-Lupe-1 4.0 18:42:35 46° N 18:43:34 81° WNW 18:47:08 10° SSW
ATLAS 5 CENTAUR R/B 3.4 18:41:47 10° W 18:45:13 23° NNW 18:47:37 16° N
Cosmos 1092 Rocket 3.9 18:39:13 10° S 18:45:20 67° E 18:51:28 10° NNE
MOS 1 Rocket 3.8 18:42:21 10° N 18:46:35 53° WNW 18:50:44 10° SSW
Iridium 4 Rocket 3.6 18:41:03 10° N 18:46:45 61° E 18:51:58 10° SSE
Meteor 2-1 Rocket 4.3 18:42:19 10° NNW 18:47:54 75° W 18:53:22 10° S
Cosmos 1812 Rocket 3.8 18:45:20 10° N 18:48:54 51° NNE 18:48:54 51° NNE
Cosmos 2344 4.3 18:44:16 10° NW 18:53:09 59° NE 18:59:35 30° ESE
SJ 16-02 1.5 18:49:54 10° SSW 18:54:17 70° WNW 18:55:59 36° N
SJ-11-01 4.4 18:49:39 10° S 18:54:20 75° WSW 18:59:03 10° NNW
Aureole 3 3.9 18:53:59 10° NNW 18:57:23 44° W 19:00:20 10° SSW
Cosmos 2112 Rocket 3.8 18:56:13 10° NNW 19:01:29 74° ENE 19:02:18 61° SE
Cosmos 1455 3.4 18:58:05 10° NNW 19:01:42 42° W 19:05:19 10° SSW
CZ-4C R/B 4.2 18:59:34 10° WNW 19:03:42 20° NNW 19:06:30 15° NNE
Cosmos 2263 Rocket 4.4 19:01:35 10° W 19:05:42 20° NW 19:09:48 10° N
X-37B 2.8 19:04:02 10° WSW 19:05:31 24° SW 19:05:31 24° SW
Cosmos 1703 4.0 19:04:09 10° SSW 19:07:02 47° SW 19:07:02 47° SW
COSMOS 2406 3.9 19:10:36 10° NNW 19:14:49 41° NNE 19:14:49 41° NNE
ARGOS 3.5 19:12:31 10° S 19:17:49 64° WSW 19:23:11 10° NNW
ERS-2 4.3 19:16:37 18° NNW 19:18:15 24° WNW 19:21:14 10° WSW
ISS -1.5 19:16:25 10° WSW 19:17:58 25° WSW 19:17:58 25° WSW
Cosmos 44 3.9 19:15:21 10° SSW 19:18:46 47° SSW 19:18:46 47° SSW
Lacrosse 5 2.6 19:18:37 10° WNW 19:23:28 48° SW 19:24:15 44° SSW
CZ-2C R/B 2.6 19:27:19 87° SW 19:27:19 87° SW 19:32:50 10° SSW
CZ-4 R/B 4.0 19:29:17 10° SW 19:32:18 20° W 19:35:18 10° NW
NOSS 3-1 (C) 4.0 19:24:56 10° NW 19:32:26 88° NE 19:34:40 55° SE
COSMOS 2455 4.2 19:29:07 10° WSW 19:34:33 34° NW 19:37:13 24° N
Cosmos 990 Rocket 4.4 19:31:44 10° SSW 19:36:24 61° W 19:36:24 61° W
Cosmos 1553 Rocket 4.0 19:30:37 10° N 19:36:14 69° N 19:36:14 69° N
Cosmos 1833 Rocket 3.8 19:33:20 10° NNW 19:36:25 33° N 19:36:25 33° N
Cosmos 2026 Rocket 4.3 19:33:47 10° SSW 19:39:49 64° WNW 19:46:00 10° N
USA 281 4.4 19:43:33 27° N 19:43:33 27° N 19:46:48 10° NNW
Cosmos 2082 Rocket 4.0 19:35:46 10° NNW 19:37:48 21° N 19:37:48 21° N
Meteor 2-19 Rocket 4.5 19:38:37 10° SSW 19:44:22 74° WSW 19:44:22 74° WSW
USA 229 DEB 3.7 19:42:05 10° NW 19:49:18 84° NNE 19:49:18 84° NNE
USA 229 3.8 19:42:11 10° NW 19:49:21 83° NNE 19:49:21 83° NNE
USA 267 3.4 19:51:34 62° SSW 19:51:34 62° SSW 19:57:02 10° SW
H-2A R/B 4.4 19:53:24 10° SW 19:57:02 20° W 20:00:45 10° NW
Cosmos 1844 Rocket 4.3 19:54:43 10° WSW 19:59:36 29° NW 20:01:07 26° NNW
NOSS 3-1 (A) 4.0 19:57:30 10° NW 20:04:27 79° NNW 20:04:27 79° NNW
USA 234 4.1 20:27:40 45° NW 20:27:40 45° NW 20:31:58 10° NW
